contact:dominique.lefevre@mio.osupytheas.fr, maurice.libes@osupytheas.fr, didier.mallarino@osupytheas.fr
Project:EMSO http://www.emso-fr.org/EMSO-France
Depth: 2436.0 m
Title:EMSO Ligure Ouest : Data MII capteur AQUADOPP
Date,Latitude,Longitude,X_East,Y_North,Z_Up,Amplitude_X,Amplitude_Y,Amplitude_Z,Batterie,SoundSpeed,Heading,Pitch,Roll,Pressure,TIS,Speed,Direction
, degrees North, degrees East, m.s-1, m.s-1,m.s-1, 1, 1, 1, Volt, m.s-1, degree, degree, degree, dbar, degree_C, m.s-1, degree
2022-02-21T00:04:03,42.805,6.029,-0.023,-0.027,-0.038,102.0,103.0,101.0,13.4,1505.2,329.9,-0.8,1.8,2470.774,13.28,0.035,220.4
2022-02-21T00:07:03,42.805,6.029,-0.009,0.004,-0.016,103.0,102.0,101.0,13.3,1505.2,331.6,-0.8,1.8,2470.807,13.28,0.009,294.0
2022-02-21T00:10:03,42.805,6.029,-0.06,-0.024,-0.03,103.0,102.0,102.0,13.4,1505.2,330.6,-0.8,1.8,2470.743,13.28,0.064,248.2
2022-02-21T00:13:03,42.805,6.029,-0.015,-0.011,-0.013,102.0,103.0,101.0,13.3,1505.2,325.8,-0.8,1.8,2470.736,13.28,0.018,233.7
2022-02-21T00:16:03,42.805,6.029,-0.044,-0.014,-0.012,102.0,102.0,102.0,13.4,1505.2,328.4,-0.8,1.8,2470.731,13.28,0.046,252.4
2022-02-21T00:19:03,42.805,6.029,-0.02,0.0,-0.005,104.0,102.0,101.0,13.4,1505.2,325.2,-0.8,1.8,2470.766,13.28,0.02,270.0
2022-02-21T00:22:03,42.805,6.029,-0.025,-0.008,-0.008,103.0,103.0,102.0,13.4,1505.2,330.7,-0.8,1.8,2470.76,13.28,0.026,252.3
2022-02-21T00:25:03,42.805,6.029,-0.005,-0.021,-0.033,104.0,103.0,101.0,13.3,1505.2,323.5,-0.8,1.9,2470.742,13.29,0.021,193.4
2022-02-21T00:28:03,42.805,6.029,-0.018,0.002,-0.024,103.0,102.0,102.0,13.4,1505.2,328.4,-0.7,1.8,2470.767,13.29,0.018,276.3
2022-02-21T00:31:03,42.805,6.029,-0.023,-0.009,-0.009,103.0,102.0,101.0,13.3,1505.2,327.0,-0.7,1.8,2470.748,13.29,0.024,248.6
2022-02-21T00:34:03,42.805,6.029,-0.013,-0.021,-0.028,102.0,104.0,101.0,13.4,1505.2,325.0,-0.7,1.8,2470.768,13.29,0.024,211.8
2022-02-21T00:37:03,42.805,6.029,-0.022,-0.005,-0.014,102.0,102.0,102.0,13.4,1505.2,323.3,-0.7,1.8,2470.74,13.29,0.022,257.2
2022-02-21T00:40:03,42.805,6.029,-0.025,-0.027,-0.042,103.0,102.0,101.0,13.4,1505.2,326.3,-0.8,1.9,2470.723,13.29,0.036,222.8
2022-02-21T00:43:03,42.805,6.029,-0.018,-0.012,-0.034,103.0,102.0,102.0,13.4,1505.2,329.0,-0.8,1.9,2470.733,13.29,0.021,236.3
2022-02-21T00:46:03,42.805,6.029,-0.026,-0.009,-0.023,102.0,102.0,101.0,13.4,1505.2,332.2,-0.7,1.8,2470.745,13.29,0.027,250.9
2022-02-21T00:49:03,42.805,6.029,-0.005,-0.044,-0.068,103.0,102.0,102.0,13.3,1505.2,325.7,-0.7,1.8,2470.74,13.29,0.044,186.5
2022-02-21T00:52:03,42.805,6.029,-0.023,-0.002,0.001,102.0,102.0,101.0,13.4,1505.2,326.3,-0.7,1.8,2470.71,13.29,0.023,265.0
2022-02-21T00:55:03,42.805,6.029,-0.01,-0.015,-0.018,103.0,102.0,100.0,13.4,1505.2,329.3,-0.7,1.8,2470.737,13.29,0.018,213.7
2022-02-21T00:58:03,42.805,6.029,-0.003,-0.025,-0.005,102.0,103.0,102.0,13.3,1505.2,326.3,-0.7,1.8,2470.732,13.29,0.025,186.8
2022-02-21T01:04:03,42.805,6.029,0.0,-0.024,0.009,106.0,103.0,101.0,13.3,1505.2,325.7,-0.7,1.8,2470.76,13.28,0.024,180.0
2022-02-21T01:07:03,42.805,6.029,-0.028,-0.015,0.003,102.0,102.0,102.0,13.3,1505.2,329.4,-0.8,1.8,2470.729,13.28,0.031,241.8
2022-02-21T01:10:03,42.805,6.029,-0.027,-0.01,-0.025,103.0,102.0,100.0,13.3,1505.2,329.7,-0.8,1.8,2470.768,13.28,0.028,249.7
2022-02-21T01:13:03,42.805,6.029,-0.009,-0.032,-0.031,101.0,103.0,101.0,13.3,1505.2,325.2,-0.7,1.8,2470.753,13.28,0.033,195.7
2022-02-21T01:16:03,42.805,6.029,0.001,-0.001,0.004,102.0,102.0,101.0,13.4,1505.2,329.8,-0.7,1.9,2470.704,13.28,0.001,135.0
2022-02-21T01:19:03,42.805,6.029,-0.005,-0.007,-0.018,102.0,101.0,101.0,13.4,1505.2,326.4,-0.7,1.8,2470.703,13.29,0.008,215.5
2022-02-21T01:22:03,42.805,6.029,-0.012,-0.008,-0.014,102.0,102.0,101.0,13.4,1505.2,325.0,-0.7,1.8,2470.749,13.29,0.014,236.3
2022-02-21T01:25:03,42.805,6.029,-0.014,-0.009,-0.014,102.0,102.0,100.0,13.3,1505.2,326.7,-0.7,1.8,2470.703,13.29,0.016,237.3
2022-02-21T01:28:03,42.805,6.029,-0.024,-0.024,-0.018,102.0,102.0,100.0,13.4,1505.2,325.6,-0.7,1.8,2470.673,13.29,0.033,225.0
2022-02-21T01:31:03,42.805,6.029,-0.017,0.005,-0.042,102.0,102.0,102.0,13.4,1505.2,330.8,-0.8,1.8,2470.705,13.29,0.017,286.4
2022-02-21T01:34:03,42.805,6.029,-0.026,-0.016,-0.02,102.0,101.0,101.0,13.4,1505.2,328.2,-0.8,1.8,2470.657,13.29,0.03,238.4
2022-02-21T01:37:03,42.805,6.029,0.003,-0.017,-0.004,102.0,102.0,101.0,13.4,1505.2,325.6,-0.7,1.8,2470.664,13.29,0.017,170.0
2022-02-21T01:40:03,42.805,6.029,-0.034,-0.009,-0.004,101.0,101.0,102.0,13.4,1505.2,329.5,-0.7,1.8,2470.658,13.29,0.035,255.2
2022-02-21T01:43:03,42.805,6.029,0.009,-0.01,-0.01,103.0,103.0,101.0,13.4,1505.2,326.9,-0.8,1.8,2470.668,13.29,0.013,138.0
2022-02-21T01:46:03,42.805,6.029,-0.026,-0.013,0.002,103.0,103.0,100.0,13.3,1505.2,327.5,-0.7,1.8,2470.671,13.29,0.029,243.4
2022-02-21T01:49:03,42.805,6.029,-0.012,0.001,-0.02,103.0,102.0,101.0,13.4,1505.2,328.1,-0.8,1.8,2470.66,13.29,0.012,274.8
2022-02-21T01:52:03,42.805,6.029,-0.016,0.009,-0.005,102.0,103.0,100.0,13.4,1505.2,324.4,-0.8,1.8,2470.683,13.29,0.018,299.4
2022-02-21T01:55:03,42.805,6.029,-0.015,-0.021,-0.025,103.0,102.0,101.0,13.4,1505.2,323.5,-0.8,1.8,2470.652,13.29,0.025,215.5
2022-02-21T01:58:03,42.805,6.029,0.0,-0.007,0.003,102.0,104.0,101.0,13.4,1505.2,327.8,-0.8,1.8,2470.69,13.29,0.007,180.0
2022-02-21T02:04:03,42.805,6.029,-0.015,-0.014,-0.03,102.0,102.0,101.0,13.4,1505.2,325.9,-0.8,1.8,2470.68,13.28,0.02,227.0
2022-02-21T02:07:03,42.805,6.029,-0.005,-0.026,-0.004,102.0,103.0,101.0,13.3,1505.2,329.7,-0.8,1.8,2470.663,13.28,0.026,190.9
2022-02-21T02:10:03,42.805,6.029,-0.012,-0.033,-0.018,103.0,102.0,102.0,13.4,1505.2,327.4,-0.8,1.8,2470.699,13.28,0.035,200.0
2022-02-21T02:13:03,42.805,6.029,0.001,-0.022,-0.051,103.0,103.0,101.0,13.3,1505.2,329.6,-0.7,1.8,2470.684,13.29,0.022,177.4
2022-02-21T02:16:03,42.805,6.029,-0.04,-0.005,-0.018,102.0,103.0,102.0,13.4,1505.2,323.7,-0.7,1.8,2470.681,13.29,0.04,262.9
2022-02-21T02:19:03,42.805,6.029,0.008,-0.032,-0.031,102.0,103.0,100.0,13.3,1505.2,326.5,-0.7,1.8,2470.699,13.29,0.032,166.0
2022-02-21T02:22:03,42.805,6.029,0.002,-0.011,-0.015,103.0,104.0,101.0,13.4,1505.2,327.0,-0.8,1.8,2470.696,13.29,0.011,169.7
2022-02-21T02:25:03,42.805,6.029,-0.004,-0.018,-0.018,103.0,102.0,102.0,13.4,1505.2,325.2,-0.8,1.8,2470.668,13.29,0.018,192.5
2022-02-21T02:28:03,42.805,6.029,-0.014,-0.021,-0.034,103.0,102.0,101.0,13.4,1505.2,327.8,-0.8,1.8,2470.671,13.29,0.025,213.7
2022-02-21T02:31:03,42.805,6.029,-0.014,0.005,0.006,102.0,102.0,101.0,13.4,1505.2,326.6,-0.8,1.8,2470.666,13.29,0.014,289.6
2022-02-21T02:34:03,42.805,6.029,-0.015,-0.015,-0.011,102.0,102.0,101.0,13.4,1505.2,326.3,-0.7,1.8,2470.682,13.29,0.021,225.0
2022-02-21T02:37:03,42.805,6.029,-0.01,-0.02,-0.009,103.0,103.0,101.0,13.4,1505.2,330.7,-0.8,1.8,2470.69,13.29,0.022,206.6
2022-02-21T02:40:03,42.805,6.029,-0.005,0.0,0.006,102.0,102.0,101.0,13.4,1505.2,329.4,-0.8,1.8,2470.665,13.29,0.005,270.0
2022-02-21T02:43:03,42.805,6.029,0.021,-0.029,0.01,102.0,102.0,101.0,13.4,1505.2,328.9,-0.7,1.8,2470.664,13.29,0.035,144.1
2022-02-21T02:46:03,42.805,6.029,-0.017,0.009,0.035,101.0,102.0,100.0,13.4,1505.2,325.1,-0.8,1.9,2470.659,13.29,0.019,297.9
2022-02-21T02:49:03,42.805,6.029,0.017,-0.033,-0.029,103.0,102.0,101.0,13.3,1505.2,323.9,-0.7,1.8,2470.686,13.29,0.037,152.7
2022-02-21T02:52:03,42.805,6.029,0.004,0.0,-0.013,102.0,103.0,101.0,13.3,1505.2,326.6,-0.7,1.8,2470.618,13.29,0.004,90.0
2022-02-21T02:55:03,42.805,6.029,0.002,-0.001,-0.023,101.0,102.0,101.0,13.4,1505.2,332.0,-0.7,1.8,2470.652,13.29,0.002,116.6
2022-02-21T02:58:03,42.805,6.029,-0.018,-0.008,-0.008,100.0,101.0,102.0,13.3,1505.2,325.5,-0.7,1.8,2470.644,13.29,0.019,246.0
2022-02-21T03:04:03,42.805,6.029,-0.002,-0.009,-0.011,103.0,102.0,100.0,13.4,1505.2,328.5,-0.8,1.8,2470.659,13.28,0.009,192.5
2022-02-21T03:07:03,42.805,6.029,0.002,-0.027,-0.032,104.0,100.0,102.0,13.3,1505.2,327.7,-0.8,1.8,2470.652,13.28,0.027,175.8
2022-02-21T03:10:03,42.805,6.029,-0.012,-0.023,-0.02,103.0,103.0,101.0,13.3,1505.2,325.8,-0.8,1.8,2470.655,13.28,0.025,207.6
2022-02-21T03:13:03,42.805,6.029,0.0,-0.007,-0.011,102.0,102.0,102.0,13.3,1505.2,327.3,-0.7,1.8,2470.661,13.28,0.007,180.0
2022-02-21T03:16:03,42.805,6.029,-0.024,-0.004,-0.019,103.0,101.0,102.0,13.4,1505.2,328.5,-0.7,1.8,2470.624,13.28,0.024,260.5
2022-02-21T03:19:03,42.805,6.029,0.015,-0.028,-0.016,103.0,101.0,102.0,13.4,1505.2,329.7,-0.8,1.8,2470.646,13.28,0.031,151.8
2022-02-21T03:22:03,42.805,6.029,-0.003,-0.003,-0.03,102.0,101.0,102.0,13.4,1505.2,328.4,-0.7,1.8,2470.642,13.28,0.004,225.0
2022-02-21T03:25:03,42.805,6.029,-0.001,-0.013,-0.002,103.0,102.0,101.0,13.4,1505.2,329.0,-0.8,1.8,2470.659,13.28,0.013,184.4
2022-02-21T03:28:03,42.805,6.029,0.003,0.001,-0.041,102.0,104.0,102.0,13.3,1505.2,329.6,-0.7,1.8,2470.674,13.28,0.003,71.6
2022-02-21T03:31:03,42.805,6.029,-0.009,-0.02,-0.035,102.0,102.0,101.0,13.4,1505.2,324.1,-0.7,1.8,2470.664,13.28,0.021,204.2
2022-02-21T03:34:03,42.805,6.029,-0.01,-0.003,0.007,103.0,101.0,101.0,13.3,1505.2,326.4,-0.8,1.8,2470.634,13.28,0.01,253.3
2022-02-21T03:37:03,42.805,6.029,-0.028,-0.017,-0.037,101.0,103.0,101.0,13.4,1505.2,331.3,-0.8,1.8,2470.653,13.28,0.032,238.7
2022-02-21T03:40:03,42.805,6.029,0.007,-0.034,-0.04,103.0,103.0,100.0,13.3,1505.2,324.4,-0.7,1.8,2470.633,13.28,0.034,168.4
2022-02-21T03:43:03,42.805,6.029,0.0,-0.026,-0.006,103.0,102.0,101.0,13.3,1505.2,327.0,-0.8,1.8,2470.634,13.28,0.026,180.0
2022-02-21T03:46:03,42.805,6.029,0.004,-0.022,-0.011,103.0,101.0,101.0,13.3,1505.2,329.5,-0.8,1.8,2470.632,13.28,0.022,169.7
2022-02-21T03:49:03,42.805,6.029,-0.011,-0.027,-0.034,102.0,102.0,100.0,13.4,1505.2,332.0,-0.8,1.9,2470.651,13.28,0.029,202.2
2022-02-21T03:52:03,42.805,6.029,-0.025,-0.022,-0.037,102.0,104.0,100.0,13.4,1505.2,329.0,-0.8,1.8,2470.637,13.28,0.033,228.7
2022-02-21T03:55:03,42.805,6.029,0.009,-0.011,-0.019,104.0,100.0,100.0,13.3,1505.2,325.2,-0.8,1.8,2470.653,13.28,0.014,140.7
2022-02-21T03:58:03,42.805,6.029,-0.012,0.0,-0.007,102.0,103.0,101.0,13.3,1505.2,327.1,-0.8,1.8,2470.626,13.28,0.012,270.0
2022-02-21T04:04:03,42.805,6.029,-0.002,-0.012,-0.004,104.0,103.0,101.0,13.3,1505.2,325.2,-0.8,1.8,2470.649,13.28,0.012,189.5
2022-02-21T04:07:03,42.805,6.029,-0.007,0.0,0.011,103.0,103.0,100.0,13.3,1505.2,325.8,-0.8,1.8,2470.679,13.28,0.007,270.0
2022-02-21T04:10:03,42.805,6.029,0.01,-0.021,-0.004,103.0,102.0,102.0,13.4,1505.2,327.9,-0.8,1.8,2470.664,13.28,0.023,154.5
2022-02-21T04:13:03,42.805,6.029,-0.006,-0.015,-0.013,103.0,102.0,101.0,13.4,1505.2,327.9,-0.8,1.8,2470.649,13.28,0.016,201.8
2022-02-21T04:16:03,42.805,6.029,0.006,-0.019,-0.009,103.0,103.0,101.0,13.4,1505.2,324.6,-0.7,1.9,2470.683,13.28,0.019,162.5
2022-02-21T04:19:03,42.805,6.029,0.005,-0.014,-0.003,103.0,104.0,101.0,13.4,1505.2,325.0,-0.8,1.8,2470.659,13.28,0.014,160.4
2022-02-21T04:22:03,42.805,6.029,-0.012,-0.031,-0.005,103.0,103.0,101.0,13.3,1505.2,330.8,-0.8,1.8,2470.622,13.28,0.033,201.2
2022-02-21T04:25:03,42.805,6.029,0.016,-0.003,-0.013,105.0,100.0,103.0,13.3,1505.2,324.0,-0.8,1.8,2470.604,13.28,0.016,100.6
2022-02-21T04:28:03,42.805,6.029,0.007,-0.033,-0.026,104.0,101.0,102.0,13.3,1505.2,324.4,-0.7,1.8,2470.627,13.28,0.033,168.0
2022-02-21T04:31:03,42.805,6.029,0.009,-0.035,-0.052,103.0,104.0,101.0,13.4,1505.2,330.6,-0.8,1.8,2470.643,13.28,0.036,165.6
2022-02-21T04:34:03,42.805,6.029,-0.007,-0.016,-0.008,103.0,103.0,102.0,13.4,1505.2,329.5,-0.7,1.8,2470.667,13.28,0.017,203.6
2022-02-21T04:37:03,42.805,6.029,-0.011,-0.014,0.0,103.0,103.0,103.0,13.4,1505.2,330.5,-0.7,1.8,2470.616,13.28,0.017,218.2
2022-02-21T04:40:03,42.805,6.029,-0.006,-0.023,-0.004,102.0,103.0,101.0,13.4,1505.2,325.7,-0.8,1.9,2470.622,13.28,0.023,194.6
2022-02-21T04:43:03,42.805,6.029,-0.002,-0.017,-0.022,103.0,103.0,102.0,13.4,1505.2,327.4,-0.7,1.9,2470.622,13.28,0.017,186.7
2022-02-21T04:46:03,42.805,6.029,0.003,-0.033,-0.027,103.0,102.0,102.0,13.4,1505.2,325.3,-0.8,1.8,2470.624,13.28,0.033,174.8
2022-02-21T04:49:03,42.805,6.029,-0.006,-0.022,-0.028,103.0,103.0,102.0,13.3,1505.2,328.9,-0.8,1.8,2470.603,13.28,0.022,195.3
2022-02-21T04:52:03,42.805,6.029,-0.017,-0.006,-0.001,103.0,103.0,101.0,13.4,1505.2,329.1,-0.8,1.8,2470.62,13.28,0.018,250.6
2022-02-21T04:55:03,42.805,6.029,0.005,-0.023,-0.018,102.0,102.0,101.0,13.4,1505.2,325.4,-0.8,1.8,2470.621,13.28,0.023,167.7
2022-02-21T04:58:03,42.805,6.029,0.0,-0.04,-0.05,103.0,102.0,102.0,13.3,1505.2,325.1,-0.7,1.8,2470.61,13.28,0.04,180.0
2022-02-21T05:04:03,42.805,6.029,-0.008,-0.021,-0.027,103.0,103.0,100.0,13.4,1505.2,328.1,-0.7,1.8,2470.643,13.28,0.022,200.9
2022-02-21T05:07:03,42.805,6.029,-0.02,-0.016,-0.01,104.0,102.0,101.0,13.4,1505.2,329.1,-0.8,1.8,2470.641,13.28,0.025,231.3
2022-02-21T05:10:03,42.805,6.029,0.003,-0.04,-0.02,103.0,102.0,101.0,13.4,1505.2,324.4,-0.8,1.8,2470.692,13.28,0.04,175.7
2022-02-21T05:13:03,42.805,6.029,0.003,-0.011,-0.009,103.0,102.0,101.0,13.4,1505.2,328.9,-0.7,1.8,2470.629,13.28,0.011,164.7
2022-02-21T05:16:03,42.805,6.029,0.014,-0.009,-0.033,102.0,103.0,101.0,13.4,1505.2,327.1,-0.7,1.8,2470.636,13.28,0.016,122.7
2022-02-21T05:19:03,42.805,6.029,0.013,-0.028,-0.008,103.0,105.0,100.0,13.3,1505.2,326.6,-0.8,1.8,2470.605,13.28,0.03,155.1
2022-02-21T05:22:03,42.805,6.029,0.011,-0.009,0.013,102.0,102.0,102.0,13.4,1505.2,329.0,-0.8,1.8,2470.661,13.28,0.014,129.3
2022-02-21T05:25:03,42.805,6.029,0.01,-0.036,-0.007,102.0,102.0,100.0,13.4,1505.2,325.4,-0.8,1.8,2470.638,13.28,0.037,164.5
2022-02-21T05:28:03,42.805,6.029,0.0,-0.008,-0.03,102.0,103.0,101.0,13.3,1505.2,331.4,-0.7,1.8,2470.589,13.28,0.008,180.0
2022-02-21T05:31:03,42.805,6.029,0.012,-0.012,-0.017,102.0,103.0,101.0,13.3,1505.2,329.1,-0.7,1.8,2470.6,13.28,0.016,135.0
2022-02-21T05:34:03,42.805,6.029,0.03,-0.037,-0.016,104.0,102.0,102.0,13.4,1505.2,327.6,-0.7,1.8,2470.567,13.28,0.047,141.0
2022-02-21T05:37:03,42.805,6.029,0.003,-0.027,0.003,103.0,102.0,101.0,13.4,1505.2,328.9,-0.8,1.8,2470.633,13.28,0.027,173.7
2022-02-21T05:40:03,42.805,6.029,-0.003,-0.037,-0.034,103.0,102.0,101.0,13.4,1505.2,329.3,-0.8,1.8,2470.636,13.28,0.037,184.6
2022-02-21T05:43:03,42.805,6.029,0.037,-0.032,0.017,104.0,102.0,101.0,13.4,1505.2,325.1,-0.7,1.8,2470.636,13.28,0.048,130.9
2022-02-21T05:46:03,42.805,6.029,-0.017,-0.034,-0.037,103.0,102.0,100.0,13.3,1505.2,328.1,-0.8,1.8,2470.616,13.28,0.038,206.6
2022-02-21T05:49:03,42.805,6.029,0.011,-0.015,-0.033,101.0,104.0,101.0,13.3,1505.2,326.3,-0.7,1.8,2470.622,13.28,0.018,143.7
2022-02-21T05:52:03,42.805,6.029,0.015,-0.025,-0.019,102.0,103.0,102.0,13.3,1505.2,326.8,-0.7,1.8,2470.628,13.28,0.029,149.0
2022-02-21T05:55:03,42.805,6.029,0.007,-0.018,-0.024,103.0,102.0,102.0,13.4,1505.2,325.6,-0.8,1.8,2470.604,13.28,0.019,158.8
2022-02-21T05:58:03,42.805,6.029,0.012,-0.017,-0.015,103.0,103.0,101.0,13.3,1505.2,327.3,-0.7,1.8,2470.64,13.28,0.02,144.8
2022-02-21T06:04:03,42.805,6.029,0.022,-0.028,-0.04,102.0,102.0,101.0,13.3,1505.2,327.9,-0.8,1.8,2470.647,13.28,0.035,141.8
2022-02-21T06:07:03,42.805,6.029,-0.011,-0.015,-0.015,102.0,102.0,101.0,13.4,1505.2,328.7,-0.8,1.8,2470.657,13.28,0.018,216.3
2022-02-21T06:10:03,42.805,6.029,-0.001,-0.018,0.001,102.0,103.0,101.0,13.4,1505.2,324.8,-0.7,1.8,2470.697,13.28,0.018,183.2
2022-02-21T06:13:03,42.805,6.029,0.0,-0.006,-0.003,103.0,102.0,102.0,13.4,1505.2,325.7,-0.8,1.8,2470.637,13.28,0.006,180.0
2022-02-21T06:16:03,42.805,6.029,0.017,-0.026,-0.019,103.0,102.0,102.0,13.4,1505.2,325.2,-0.8,1.8,2470.67,13.28,0.031,146.8
2022-02-21T06:19:03,42.805,6.029,0.021,-0.004,0.02,102.0,104.0,101.0,13.4,1505.2,323.4,-0.8,1.8,2470.676,13.28,0.021,100.8
2022-02-21T06:22:03,42.805,6.029,0.0,-0.011,-0.001,104.0,104.0,102.0,13.4,1505.2,327.1,-0.8,1.8,2470.653,13.28,0.011,180.0
2022-02-21T06:25:03,42.805,6.029,0.009,-0.022,-0.026,101.0,104.0,102.0,13.3,1505.2,323.6,-0.8,1.8,2470.657,13.28,0.023,157.8
2022-02-21T06:28:03,42.805,6.029,0.007,-0.028,-0.018,103.0,103.0,102.0,13.4,1505.2,327.0,-0.7,1.9,2470.691,13.28,0.028,166.0
2022-02-21T06:31:03,42.805,6.029,0.0,-0.024,-0.002,102.0,102.0,103.0,13.4,1505.2,330.8,-0.8,1.8,2470.666,13.28,0.024,180.0
2022-02-21T06:34:03,42.805,6.029,0.014,-0.035,-0.019,104.0,102.0,101.0,13.4,1505.2,328.1,-0.8,1.8,2470.695,13.28,0.037,158.2
2022-02-21T06:37:03,42.805,6.029,-0.001,-0.019,-0.031,103.0,103.0,101.0,13.4,1505.2,329.3,-0.8,1.8,2470.67,13.28,0.019,183.0
2022-02-21T06:40:03,42.805,6.029,-0.014,-0.03,-0.014,103.0,102.0,101.0,13.4,1505.2,326.1,-0.8,1.8,2470.653,13.28,0.033,205.0
2022-02-21T06:43:03,42.805,6.029,0.001,-0.029,0.0,103.0,103.0,102.0,13.4,1505.2,328.7,-0.8,1.8,2470.649,13.28,0.029,178.0
2022-02-21T06:46:03,42.805,6.029,0.006,-0.02,-0.021,103.0,103.0,100.0,13.4,1505.2,323.3,-0.7,1.8,2470.672,13.28,0.02,163.3
2022-02-21T06:49:03,42.805,6.029,0.01,-0.021,-0.032,104.0,102.0,101.0,13.4,1505.2,326.4,-0.8,1.8,2470.675,13.28,0.023,154.5
2022-02-21T06:52:03,42.805,6.029,-0.001,-0.02,-0.024,103.0,101.0,101.0,13.3,1505.2,331.6,-0.8,1.8,2470.666,13.28,0.02,182.9
2022-02-21T06:55:03,42.805,6.029,-0.005,-0.033,-0.032,104.0,101.0,102.0,13.4,1505.2,324.2,-0.8,1.8,2470.708,13.28,0.033,188.6
2022-02-21T06:58:03,42.805,6.029,0.003,-0.027,-0.04,104.0,102.0,101.0,13.4,1505.2,330.6,-0.7,1.8,2470.671,13.28,0.027,173.7
2022-02-21T07:04:03,42.805,6.029,-0.005,-0.034,-0.024,103.0,103.0,101.0,13.3,1505.2,328.3,-0.7,1.8,2470.722,13.28,0.034,188.4
2022-02-21T07:07:03,42.805,6.029,0.0,-0.022,-0.017,103.0,103.0,101.0,13.3,1505.2,329.3,-0.8,1.8,2470.73,13.28,0.022,180.0
2022-02-21T07:10:03,42.805,6.029,0.0,-0.029,-0.007,103.0,102.0,102.0,13.3,1505.2,328.6,-0.8,1.8,2470.701,13.28,0.028,180.0
2022-02-21T07:13:03,42.805,6.029,0.019,-0.029,-0.008,104.0,102.0,101.0,13.4,1505.2,326.9,-0.8,1.8,2470.746,13.28,0.034,146.8
2022-02-21T07:16:03,42.805,6.029,-0.001,-0.026,-0.017,104.0,101.0,101.0,13.3,1505.2,325.2,-0.8,1.8,2470.672,13.28,0.026,182.2
2022-02-21T07:19:03,42.805,6.029,0.003,-0.027,-0.017,103.0,102.0,101.0,13.4,1505.2,329.2,-0.7,1.8,2470.724,13.28,0.027,173.7
2022-02-21T07:22:03,42.805,6.029,-0.018,-0.011,-0.009,103.0,102.0,101.0,13.4,1505.2,324.3,-0.8,1.8,2470.732,13.28,0.021,238.6
2022-02-21T07:25:03,42.805,6.029,0.011,-0.015,-0.005,103.0,102.0,102.0,13.4,1505.2,324.8,-0.7,1.8,2470.763,13.28,0.018,143.7
2022-02-21T07:28:03,42.805,6.029,0.002,-0.032,-0.031,102.0,103.0,101.0,13.3,1505.2,326.4,-0.8,1.8,2470.715,13.28,0.032,176.4
2022-02-21T07:31:03,42.805,6.029,0.007,-0.037,-0.004,103.0,104.0,100.0,13.4,1505.2,330.2,-0.8,1.8,2470.709,13.28,0.037,169.3
2022-02-21T07:34:03,42.805,6.029,0.02,-0.039,-0.012,104.0,103.0,101.0,13.4,1505.2,331.4,-0.7,1.8,2470.77,13.28,0.043,152.9
2022-02-21T07:37:03,42.805,6.029,0.023,-0.018,-0.003,103.0,103.0,102.0,13.3,1505.2,326.3,-0.8,1.8,2470.758,13.28,0.029,128.0
2022-02-21T07:40:03,42.805,6.029,0.001,-0.014,-0.019,104.0,104.0,101.0,13.3,1505.2,328.8,-0.7,1.8,2470.727,13.28,0.014,175.9
2022-02-21T07:43:03,42.805,6.029,-0.016,-0.012,-0.004,103.0,104.0,102.0,13.3,1505.2,327.6,-0.8,1.8,2470.757,13.28,0.02,233.1
2022-02-21T07:46:03,42.805,6.029,0.008,-0.026,-0.021,104.0,104.0,101.0,13.3,1505.2,324.7,-0.8,1.8,2470.745,13.28,0.027,162.9
2022-02-21T07:49:03,42.805,6.029,0.017,-0.027,-0.032,103.0,103.0,102.0,13.4,1505.2,324.8,-0.8,1.9,2470.728,13.28,0.031,147.8
2022-02-21T07:52:03,42.805,6.029,0.019,-0.029,-0.029,103.0,104.0,101.0,13.4,1505.2,330.0,-0.8,1.8,2470.749,13.28,0.034,146.8
2022-02-21T07:55:03,42.805,6.029,0.02,-0.028,-0.028,103.0,104.0,101.0,13.4,1505.2,326.5,-0.8,1.8,2470.749,13.28,0.034,144.5
2022-02-21T07:58:03,42.805,6.029,0.004,-0.026,-0.016,103.0,103.0,102.0,13.3,1505.2,331.7,-0.8,1.8,2470.768,13.28,0.026,171.3
2022-02-21T08:04:03,42.805,6.029,-0.007,-0.037,-0.025,104.0,103.0,102.0,13.3,1505.2,326.9,-0.7,1.8,2470.78,13.28,0.037,190.7
2022-02-21T08:07:03,42.805,6.029,0.011,-0.016,-0.004,104.0,104.0,101.0,13.4,1505.2,327.5,-0.8,1.8,2470.777,13.28,0.019,145.5
2022-02-21T08:10:03,42.805,6.029,0.014,-0.022,-0.002,103.0,103.0,102.0,13.4,1505.2,325.9,-0.7,1.8,2470.818,13.28,0.026,147.5
2022-02-21T08:13:03,42.805,6.029,0.022,-0.028,-0.036,103.0,104.0,101.0,13.3,1505.2,329.1,-0.7,1.8,2470.831,13.28,0.035,141.8
2022-02-21T08:16:03,42.805,6.029,0.004,-0.033,-0.002,103.0,103.0,101.0,13.3,1505.2,328.4,-0.7,1.8,2470.808,13.28,0.033,173.1
2022-02-21T08:19:03,42.805,6.029,0.039,-0.049,0.032,106.0,104.0,101.0,13.4,1505.2,327.2,-0.8,1.8,2470.816,13.28,0.062,141.5
2022-02-21T08:22:03,42.805,6.029,0.007,-0.037,-0.017,103.0,104.0,101.0,13.4,1505.2,327.8,-0.7,1.8,2470.813,13.28,0.037,169.3
2022-02-21T08:25:03,42.805,6.029,-0.007,-0.045,-0.015,105.0,103.0,102.0,13.3,1505.2,328.6,-0.8,1.8,2470.807,13.28,0.045,188.8
2022-02-21T08:28:03,42.805,6.029,0.006,-0.016,-0.044,103.0,103.0,102.0,13.3,1505.2,323.5,-0.8,1.8,2470.792,13.28,0.017,159.4
2022-02-21T08:31:03,42.805,6.029,0.012,-0.028,-0.023,104.0,103.0,103.0,13.3,1505.2,325.1,-0.7,1.8,2470.835,13.28,0.03,156.8
2022-02-21T08:34:03,42.805,6.029,0.026,-0.034,-0.028,104.0,104.0,103.0,13.3,1505.2,327.3,-0.8,1.8,2470.776,13.28,0.042,142.6
2022-02-21T08:37:03,42.805,6.029,0.013,-0.034,-0.001,104.0,103.0,102.0,13.3,1505.2,328.7,-0.8,1.8,2470.81,13.28,0.036,159.1
2022-02-21T08:40:03,42.805,6.029,0.022,-0.039,0.006,104.0,104.0,102.0,13.3,1505.2,327.2,-0.8,1.8,2470.768,13.28,0.044,150.6
2022-02-21T08:43:03,42.805,6.029,0.015,-0.026,-0.023,104.0,104.0,102.0,13.4,1505.2,325.6,-0.8,1.8,2470.768,13.28,0.03,150.0
2022-02-21T08:46:03,42.805,6.029,0.013,-0.032,-0.019,103.0,104.0,101.0,13.3,1505.2,332.0,-0.8,1.8,2470.806,13.28,0.034,157.9
2022-02-21T08:49:03,42.805,6.029,0.003,-0.054,-0.052,102.0,104.0,102.0,13.4,1505.2,326.7,-0.8,1.8,2470.797,13.28,0.054,176.8
2022-02-21T08:52:03,42.805,6.029,0.012,-0.043,-0.001,104.0,103.0,101.0,13.4,1505.2,323.5,-0.7,1.8,2470.813,13.28,0.044,164.4
2022-02-21T08:55:03,42.805,6.029,0.024,-0.046,-0.031,104.0,104.0,101.0,13.4,1505.2,329.7,-0.7,1.8,2470.787,13.28,0.051,152.4
2022-02-21T08:58:03,42.805,6.029,0.022,-0.028,0.0,104.0,104.0,102.0,13.4,1505.2,330.2,-0.7,1.8,2470.834,13.28,0.035,141.8
2022-02-21T09:04:03,42.805,6.029,0.007,-0.03,-0.039,103.0,105.0,103.0,13.4,1505.2,329.7,-0.8,1.8,2470.855,13.28,0.03,166.9
2022-02-21T09:07:03,42.805,6.029,0.012,-0.027,0.011,106.0,102.0,103.0,13.3,1505.2,326.3,-0.7,1.8,2470.812,13.28,0.029,156.0
2022-02-21T09:10:03,42.805,6.029,0.025,-0.053,-0.006,105.0,104.0,102.0,13.4,1505.2,330.6,-0.8,1.8,2470.86,13.28,0.058,154.7
2022-02-21T09:13:03,42.805,6.029,-0.005,-0.04,-0.023,105.0,105.0,102.0,13.4,1505.2,331.3,-0.7,1.8,2470.863,13.28,0.04,187.1
2022-02-21T09:16:03,42.805,6.029,0.005,-0.032,-0.017,105.0,103.0,103.0,13.4,1505.2,330.2,-0.8,1.8,2470.82,13.28,0.032,171.1
2022-02-21T09:19:03,42.805,6.029,0.029,-0.029,0.014,106.0,105.0,103.0,13.4,1505.2,329.7,-0.8,1.8,2470.817,13.28,0.041,135.0
2022-02-21T09:22:03,42.805,6.029,0.013,-0.041,-0.02,106.0,104.0,102.0,13.4,1505.2,326.5,-0.7,1.8,2470.812,13.28,0.043,162.4
2022-02-21T09:25:03,42.805,6.029,0.014,-0.036,-0.038,106.0,104.0,103.0,13.4,1505.2,327.8,-0.8,1.8,2470.867,13.28,0.038,158.8
2022-02-21T09:28:03,42.805,6.029,0.012,-0.023,0.013,106.0,105.0,103.0,13.3,1505.2,324.5,-0.7,1.8,2470.842,13.28,0.025,152.4
2022-02-21T09:31:03,42.805,6.029,0.007,-0.034,-0.019,106.0,104.0,102.0,13.4,1505.2,329.2,-0.8,1.8,2470.828,13.28,0.034,168.4
2022-02-21T09:34:03,42.805,6.029,0.012,-0.042,-0.026,104.0,105.0,102.0,13.4,1505.2,329.2,-0.8,1.8,2470.843,13.28,0.043,164.1
2022-02-21T09:37:03,42.805,6.029,0.004,-0.04,-0.022,104.0,105.0,103.0,13.4,1505.2,329.4,-0.8,1.8,2470.853,13.28,0.04,174.3
2022-02-21T09:40:03,42.805,6.029,-0.015,-0.01,-0.016,106.0,104.0,102.0,13.4,1505.2,331.3,-0.8,1.8,2470.831,13.28,0.018,236.3
2022-02-21T09:43:03,42.805,6.029,-0.001,-0.017,0.009,106.0,104.0,103.0,13.4,1505.2,326.3,-0.8,1.8,2470.831,13.28,0.017,183.4
2022-02-21T09:46:03,42.805,6.029,0.01,-0.039,-0.014,106.0,105.0,104.0,13.4,1505.2,331.4,-0.7,1.8,2470.885,13.28,0.04,165.6
2022-02-21T09:49:03,42.805,6.029,0.018,-0.035,-0.04,106.0,105.0,103.0,13.4,1505.2,328.5,-0.8,1.8,2470.823,13.28,0.039,152.8
2022-02-21T09:52:03,42.805,6.029,-0.005,-0.036,-0.034,105.0,105.0,103.0,13.4,1505.2,327.7,-0.7,1.8,2470.809,13.28,0.036,187.9